TimeCDT,TemperatureF,Dew PointF,Humidity,Sea Level PressureIn,VisibilityMPH,Wind Direction,Wind SpeedMPH,Gust SpeedMPH,PrecipitationIn,Events,Conditions,WindDirDegrees,DateUTC
12:15 AM,33.8,33.8,100,29.85,10.0,North,24.2,-,N/A,,Overcast,10,2013-04-18 05:15:00
12:35 AM,33.8,33.8,100,29.83,10.0,North,21.9,-,N/A,,Overcast,10,2013-04-18 05:35:00
1:15 AM,33.8,33.8,100,29.86,10.0,North,17.3,27.6,N/A,,Overcast,360,2013-04-18 06:15:00
1:35 AM,33.8,33.8,100,29.83,10.0,North,19.6,26.5,N/A,,Overcast,10,2013-04-18 06:35:00
1:55 AM,33.8,33.8,100,29.85,8.0,North,21.9,29.9,N/A,,Overcast,10,2013-04-18 06:55:00
2:15 AM,33.8,33.8,100,29.85,6.0,North,16.1,24.2,N/A,,Overcast,10,2013-04-18 07:15:00
2:35 AM,33.8,33.8,100,29.87,8.0,North,16.1,-,N/A,,Overcast,10,2013-04-18 07:35:00
2:55 AM,33.8,33.8,100,29.86,6.0,North,15.0,-,N/A,,Overcast,350,2013-04-18 07:55:00
3:15 AM,32.0,32.0,100,29.84,4.0,North,16.1,-,N/A,,Light Drizzle,10,2013-04-18 08:15:00
3:35 AM,32.0,32.0,100,29.82,3.0,North,17.3,25.3,N/A,,Light Drizzle,360,2013-04-18 08:35:00
3:55 AM,32.0,32.0,100,29.81,2.0,North,18.4,-,N/A,Snow,Light Snow,360,2013-04-18 08:55:00
4:15 AM,32.0,32.0,100,29.78,1.5,North,19.6,-,N/A,Rain,Rain,360,2013-04-18 09:15:00
4:35 AM,32.0,32.0,100,29.77,0.8,North,20.7,-,N/A,Snow,Light Snow,10,2013-04-18 09:35:00
4:55 AM,32.0,32.0,100,29.75,3.0,North,23.0,-,N/A,Rain,Light Rain,10,2013-04-18 09:55:00
5:15 AM,32.0,32.0,100,29.76,8.0,North,18.4,25.3,N/A,,Light Drizzle,360,2013-04-18 10:15:00
5:35 AM,32.0,32.0,100,29.72,10.0,North,26.5,32.2,N/A,,Overcast,360,2013-04-18 10:35:00
5:55 AM,32.0,32.0,100,29.74,10.0,North,23.0,-,N/A,,Light Drizzle,350,2013-04-18 10:55:00
6:15 AM,32.0,32.0,100,29.72,5.0,North,23.0,32.2,N/A,Rain,Light Rain,350,2013-04-18 11:15:00
6:35 AM,32.0,32.0,100,29.74,2.5,North,19.6,27.6,N/A,Rain,Heavy Rain,350,2013-04-18 11:35:00
6:55 AM,32.0,32.0,100,29.72,1.5,North,20.7,26.5,N/A,Rain,Rain,350,2013-04-18 11:55:00
7:15 AM,32.0,32.0,100,29.70,-9999.0,North,20.7,29.9,N/A,Rain,Heavy Rain,360,2013-04-18 12:15:00
7:35 AM,32.0,32.0,100,29.69,1.0,North,20.7,31.1,N/A,Rain,Rain,360,2013-04-18 12:35:00
7:55 AM,32.0,32.0,100,29.75,1.5,North,16.1,24.2,0.01,Rain,Light Rain,350,2013-04-18 12:55:00
8:15 AM,32.0,32.0,100,29.73,1.2,North,17.3,25.3,N/A,Rain,Light Rain,350,2013-04-18 13:15:00
8:35 AM,32.0,32.0,100,29.71,0.2,North,20.7,29.9,N/A,,Overcast,360,2013-04-18 13:35:00
8:55 AM,32.0,32.0,100,29.75,0.5,North,17.3,24.2,N/A,,Overcast,350,2013-04-18 13:55:00
9:15 AM,32.0,32.0,100,29.76,0.5,NNW,18.4,26.5,N/A,,Overcast,340,2013-04-18 14:15:00
9:35 AM,32.0,32.0,100,29.75,0.2,NNW,21.9,-,N/A,,Overcast,340,2013-04-18 14:35:00
9:55 AM,32.0,32.0,100,29.74,-9999.0,NNW,20.7,27.6,N/A,,Unknown,340,2013-04-18 14:55:00
10:15 AM,32.0,32.0,100,29.73,0.2,NNW,23.0,29.9,N/A,Snow,Light Snow,330,2013-04-18 15:15:00
10:35 AM,32.0,32.0,100,29.73,0.5,NNW,23.0,31.1,N/A,Snow,Light Snow,330,2013-04-18 15:35:00
10:55 AM,32.0,32.0,100,29.73,0.8,NNW,28.8,34.5,0.01,Snow,Light Snow,330,2013-04-18 15:55:00
11:15 AM,-9999,-9999,N/A,29.73,0.2,NNW,26.5,35.7,N/A,,Unknown,330,2013-04-18 16:15:00
11:35 AM,-9999,-9999,N/A,29.73,0.2,NNW,28.8,-,N/A,,Unknown,330,2013-04-18 16:35:00
11:55 AM,32.0,32.0,100,29.71,0.5,NNW,26.5,-,N/A,Snow,Light Snow,330,2013-04-18 16:55:00
12:15 PM,32.0,32.0,100,29.71,0.8,NNW,24.2,33.4,N/A,Snow,Light Snow,330,2013-04-18 17:15:00
12:35 PM,32.0,32.0,100,29.71,0.5,NNW,26.5,-,N/A,,Mostly Cloudy,330,2013-04-18 17:35:00
12:55 PM,32.0,32.0,100,29.70,0.5,NNW,26.5,33.4,0.01,Snow,Light Snow,330,2013-04-18 17:55:00
1:15 PM,32.0,32.0,100,29.68,0.5,NNW,27.6,35.7,N/A,Snow,Light Snow,330,2013-04-18 18:15:00
1:35 PM,32.0,32.0,100,29.68,0.5,NNW,27.6,33.4,N/A,Snow,Light Snow,330,2013-04-18 18:35:00
1:55 PM,32.0,32.0,100,29.68,0.5,NNW,26.5,32.2,N/A,Snow,Light Snow,330,2013-04-18 18:55:00
2:15 PM,32.0,32.0,100,29.68,0.5,NNW,26.5,33.4,N/A,Snow,Light Snow,330,2013-04-18 19:15:00
2:35 PM,32.0,32.0,100,29.68,0.5,NNW,26.5,33.4,N/A,Snow,Light Snow,330,2013-04-18 19:35:00
2:55 PM,32.0,32.0,100,29.69,0.8,NNW,26.5,34.5,N/A,Snow,Light Snow,330,2013-04-18 19:55:00
3:35 PM,32.0,32.0,100,29.68,0.8,NNW,25.3,33.4,N/A,Snow,Light Snow,330,2013-04-18 20:35:00
3:55 PM,32.0,32.0,100,29.69,0.5,NW,26.5,33.4,N/A,Snow,Light Snow,320,2013-04-18 20:55:00
4:15 PM,32.0,32.0,100,29.69,0.2,NW,25.3,35.7,N/A,Snow,Snow,320,2013-04-18 21:15:00
4:35 PM,32.0,32.0,100,29.69,0.5,NNW,29.9,35.7,N/A,Snow,Light Snow,330,2013-04-18 21:35:00
4:55 PM,32.0,32.0,100,29.69,0.5,NNW,27.6,41.4,N/A,Snow,Light Snow,330,2013-04-18 21:55:00
5:15 PM,32.0,32.0,100,29.70,0.5,NW,25.3,35.7,N/A,Snow,Light Snow,320,2013-04-18 22:15:00
5:35 PM,32.0,32.0,100,29.70,0.5,NW,26.5,34.5,N/A,,Mostly Cloudy,320,2013-04-18 22:35:00
5:55 PM,32.0,32.0,100,29.71,0.5,NW,24.2,33.4,N/A,,Mostly Cloudy,320,2013-04-18 22:55:00
6:15 PM,32.0,32.0,100,29.71,0.2,NW,26.5,34.5,N/A,Snow,Light Snow,310,2013-04-18 23:15:00
6:35 PM,32.0,32.0,100,29.72,0.5,NW,25.3,34.5,N/A,,Mostly Cloudy,320,2013-04-18 23:35:00
6:55 PM,-9999,-9999,N/A,29.73,0.5,NW,25.3,34.5,N/A,,Mostly Cloudy,320,2013-04-18 23:55:00
7:15 PM,30.2,30.2,100,29.73,0.5,NW,26.5,35.7,N/A,,Overcast,320,2013-04-19 00:15:00
7:35 PM,30.2,30.2,100,29.74,0.5,NW,25.3,34.5,N/A,,Overcast,320,2013-04-19 00:35:00
7:55 PM,30.2,30.2,100,29.74,0.8,NW,26.5,33.4,N/A,,Overcast,320,2013-04-19 00:55:00
8:15 PM,30.2,30.2,100,29.75,0.5,NW,24.2,34.5,N/A,,Overcast,310,2013-04-19 01:15:00
8:35 PM,30.2,30.2,100,29.75,0.8,NW,25.3,34.5,N/A,Snow,Light Snow,310,2013-04-19 01:35:00
9:55 PM,-9999,-9999,N/A,29.76,2.0,NW,26.5,-,N/A,,Unknown,320,2013-04-19 02:55:00
10:35 PM,30.2,30.2,100,29.76,2.0,NNW,25.3,35.7,N/A,,Overcast,330,2013-04-19 03:35:00
10:55 PM,30.2,30.2,100,29.75,2.5,NW,27.6,35.7,N/A,,Overcast,320,2013-04-19 03:55:00
11:15 PM,30.2,30.2,100,29.75,2.0,NW,24.2,32.2,N/A,,Overcast,320,2013-04-19 04:15:00
11:35 PM,30.2,30.2,100,29.75,2.0,NW,25.3,34.5,N/A,,Overcast,320,2013-04-19 04:35:00
11:55 PM,30.2,30.2,100,29.75,3.0,NW,25.3,33.4,N/A,,Overcast,320,2013-04-19 04:55:00